Find NOAA 9

NORAD ID: 15427 Int'l Des: 1984-123 Owner: NOAA Country: US operational
LEOCIRCULARRETROGRADESSO

Live-Position

3D-Globus wird geladen...

Über NOAA 9

Beschreibung wird geladen...

Nächste Überflüge

Passes for default location (London). Set your location on the main map for personalized predictions.

Höhenverlauf

Loading altitude history...

Zweizeiliger Elementsatz

1 15427U 84123A 26132.32519981 .00000070 00000-0 57819-4 0 9990
2 15427 99.1013 158.1281 0015743 91.7510 281.1930 14.17058205138349
Epoch: 12. Mai 2026 • Age: 4 hours

Aktueller Status

Höhe 864.3 km
Geschwindigkeit 7.41 km/s
Subsatellitenpunkt -51.93°S, 87.12°W
Startdatum 12. Dez. 1984
Alter 41.4 years
Typ weather

Technische Details

Klassifizierung Payload
Masse 1030.00 kg
Trockenmasse 1030.00 kg
Gesamtmasse 1712.00 kg
Länge 4.20 m
Durchmesser 1.90 m
Spannweite 8.00 m
Form Box + Pan
Hersteller RCA
Bus-Typ ATN
Phasenstatus In Orbit
Besitzer/Staat NOAA/US

Most Searched